Year,Month,Day,Hour,Minute,Value (Times are PST for temperature in C)
2015,06,28,00,00,19.80
2015,06,28,00,01,19.80
2015,06,28,00,02,19.70
2015,06,28,00,03,19.70
2015,06,28,00,04,19.60
2015,06,28,00,05,19.60
2015,06,28,00,06,19.60
2015,06,28,00,07,19.50
2015,06,28,00,08,19.50
2015,06,28,00,09,19.40
2015,06,28,00,10,19.40
2015,06,28,00,11,19.40
2015,06,28,00,12,19.40
2015,06,28,00,13,19.30
2015,06,28,00,14,19.30
2015,06,28,00,15,19.30
2015,06,28,00,16,19.30
2015,06,28,00,17,19.30
2015,06,28,00,18,19.30
2015,06,28,00,19,19.30
2015,06,28,00,20,19.30
2015,06,28,00,21,19.20
2015,06,28,00,22,19.20
2015,06,28,00,23,19.20
2015,06,28,00,24,19.20
2015,06,28,00,25,19.20
2015,06,28,00,26,19.10
2015,06,28,00,27,19.10
2015,06,28,00,28,19.10
2015,06,28,00,29,19.00
2015,06,28,00,30,19.00
2015,06,28,00,31,18.90
2015,06,28,00,32,18.90
2015,06,28,00,33,18.90
2015,06,28,00,34,18.90
2015,06,28,00,35,18.90
2015,06,28,00,36,18.80
2015,06,28,00,37,18.80
2015,06,28,00,38,18.80
2015,06,28,00,39,18.80
2015,06,28,00,40,18.70
2015,06,28,00,41,18.70
2015,06,28,00,42,18.70
2015,06,28,00,43,18.70
2015,06,28,00,44,18.60
2015,06,28,00,45,18.60
2015,06,28,00,46,18.60
2015,06,28,00,47,18.60
2015,06,28,00,48,18.50
2015,06,28,00,49,18.50
2015,06,28,00,50,18.50
2015,06,28,00,51,18.40
2015,06,28,00,52,18.40
2015,06,28,00,53,18.40
2015,06,28,00,54,18.40
2015,06,28,00,55,18.40
2015,06,28,00,56,18.40
2015,06,28,00,57,18.40
2015,06,28,00,58,18.40
2015,06,28,00,59,18.40
2015,06,28,01,00,18.30
2015,06,28,01,01,18.30
2015,06,28,01,02,18.30
2015,06,28,01,03,18.30
2015,06,28,01,04,18.30
2015,06,28,01,05,18.30
2015,06,28,01,06,18.30
2015,06,28,01,07,18.30
2015,06,28,01,08,18.30
2015,06,28,01,09,18.30
2015,06,28,01,10,18.30
2015,06,28,01,11,18.30
2015,06,28,01,12,18.30
2015,06,28,01,13,18.30
2015,06,28,01,14,18.30
2015,06,28,01,15,18.30
2015,06,28,01,16,18.30
2015,06,28,01,17,18.30
2015,06,28,01,18,18.30
2015,06,28,01,19,18.20
2015,06,28,01,20,18.20
2015,06,28,01,21,18.20
2015,06,28,01,22,18.20
2015,06,28,01,23,18.20
2015,06,28,01,24,18.20
2015,06,28,01,25,18.20
2015,06,28,01,26,18.20
2015,06,28,01,27,18.10
2015,06,28,01,28,18.10
2015,06,28,01,29,18.10
2015,06,28,01,30,18.10
2015,06,28,01,31,18.10
2015,06,28,01,32,18.10
2015,06,28,01,33,18.10
2015,06,28,01,34,18.10
2015,06,28,01,35,18.00
2015,06,28,01,36,18.00
2015,06,28,01,37,18.00
2015,06,28,01,38,18.00
2015,06,28,01,39,18.00
2015,06,28,01,40,17.90
2015,06,28,01,41,17.90
2015,06,28,01,42,17.90
2015,06,28,01,43,17.90
2015,06,28,01,44,17.90
2015,06,28,01,45,17.90
2015,06,28,01,46,17.90
2015,06,28,01,47,17.90
2015,06,28,01,48,17.90
2015,06,28,01,49,17.90
2015,06,28,01,50,17.90
2015,06,28,01,51,17.90
2015,06,28,01,52,17.90
2015,06,28,01,53,17.90
2015,06,28,01,54,17.80
2015,06,28,01,55,17.80
2015,06,28,01,56,17.80
2015,06,28,01,57,17.80
2015,06,28,01,58,17.70
2015,06,28,01,59,17.70
2015,06,28,02,00,17.70
2015,06,28,02,01,17.70
2015,06,28,02,02,17.70
2015,06,28,02,03,17.70
2015,06,28,02,04,17.60
2015,06,28,02,05,17.60
2015,06,28,02,06,17.60
2015,06,28,02,07,17.60
2015,06,28,02,08,17.60
2015,06,28,02,09,17.60
2015,06,28,02,10,17.60
2015,06,28,02,11,17.50
2015,06,28,02,12,17.50
2015,06,28,02,13,17.50
2015,06,28,02,14,17.50
2015,06,28,02,15,17.50
2015,06,28,02,16,17.40
2015,06,28,02,17,17.40
2015,06,28,02,18,17.40
2015,06,28,02,19,17.40
2015,06,28,02,20,17.40
2015,06,28,02,21,17.40
2015,06,28,02,22,17.40
2015,06,28,02,23,17.40
2015,06,28,02,24,17.30
2015,06,28,02,25,17.30
2015,06,28,02,26,17.30
2015,06,28,02,27,17.30
2015,06,28,02,28,17.30
2015,06,28,02,29,17.30
2015,06,28,02,30,17.30
2015,06,28,02,31,17.20
2015,06,28,02,32,17.20
2015,06,28,02,33,17.20
2015,06,28,02,34,17.20
2015,06,28,02,35,17.20
2015,06,28,02,36,17.20
2015,06,28,02,37,17.20
2015,06,28,02,38,17.20
2015,06,28,02,39,17.20
2015,06,28,02,40,17.20
2015,06,28,02,41,17.20
2015,06,28,02,42,17.20
2015,06,28,02,43,17.20
2015,06,28,02,44,17.20
2015,06,28,02,45,17.20
2015,06,28,02,46,17.10
2015,06,28,02,47,17.10
2015,06,28,02,48,17.10
2015,06,28,02,49,17.10
2015,06,28,02,50,17.10
2015,06,28,02,51,17.10
2015,06,28,02,52,17.10
2015,06,28,02,53,17.10
2015,06,28,02,54,17.00
2015,06,28,02,55,17.10
2015,06,28,02,56,17.10
2015,06,28,02,57,17.10
2015,06,28,02,58,17.10
2015,06,28,02,59,17.10
2015,06,28,03,00,17.10
2015,06,28,03,01,17.10
2015,06,28,03,02,17.10
2015,06,28,03,03,17.10
2015,06,28,03,04,17.00
2015,06,28,03,05,17.00
2015,06,28,03,06,17.00
2015,06,28,03,07,17.00
2015,06,28,03,08,16.90
2015,06,28,03,09,16.90
2015,06,28,03,10,16.90
2015,06,28,03,11,16.90
2015,06,28,03,12,16.90
2015,06,28,03,13,16.90
2015,06,28,03,14,16.90
2015,06,28,03,15,16.90
2015,06,28,03,16,16.90
2015,06,28,03,17,16.90
2015,06,28,03,18,16.90
2015,06,28,03,19,16.90
2015,06,28,03,20,16.80
2015,06,28,03,21,16.80
2015,06,28,03,22,16.80
2015,06,28,03,23,16.80
2015,06,28,03,24,16.80
2015,06,28,03,25,16.80
2015,06,28,03,26,16.70
2015,06,28,03,27,16.70
2015,06,28,03,28,16.70
2015,06,28,03,29,16.70
2015,06,28,03,30,16.70
2015,06,28,03,31,16.70
2015,06,28,03,32,16.70
2015,06,28,03,33,16.80
2015,06,28,03,34,16.80
2015,06,28,03,35,16.80
2015,06,28,03,36,16.80
2015,06,28,03,37,16.80
2015,06,28,03,38,16.70
2015,06,28,03,39,16.70
2015,06,28,03,40,16.70
2015,06,28,03,41,16.70
2015,06,28,03,42,16.80
2015,06,28,03,43,16.80
2015,06,28,03,44,16.80
2015,06,28,03,45,16.80
2015,06,28,03,46,16.80
2015,06,28,03,47,16.80
2015,06,28,03,48,16.80
2015,06,28,03,49,16.90
2015,06,28,03,50,16.90
2015,06,28,03,51,16.90
2015,06,28,03,52,16.90
2015,06,28,03,53,16.90
2015,06,28,03,54,16.90
2015,06,28,03,55,16.90
2015,06,28,03,56,17.00
2015,06,28,03,57,17.00
2015,06,28,03,58,17.10
2015,06,28,03,59,17.10
2015,06,28,04,00,17.20
2015,06,28,04,01,17.30
2015,06,28,04,02,17.40
2015,06,28,04,03,17.50
2015,06,28,04,04,17.60
2015,06,28,04,05,17.60
2015,06,28,04,06,17.70
2015,06,28,04,07,17.80
2015,06,28,04,08,17.90
2015,06,28,04,09,17.90
2015,06,28,04,10,18.00
2015,06,28,04,11,18.10
2015,06,28,04,12,18.20
2015,06,28,04,13,18.20
2015,06,28,04,14,18.30
2015,06,28,04,15,18.50
2015,06,28,04,16,18.60
2015,06,28,04,17,18.70
2015,06,28,04,18,18.80
2015,06,28,04,19,18.90
2015,06,28,04,20,19.00
2015,06,28,04,21,19.20
2015,06,28,04,22,19.30
2015,06,28,04,23,19.40
2015,06,28,04,24,19.50
2015,06,28,04,25,19.60
2015,06,28,04,26,19.60
2015,06,28,04,27,19.70
2015,06,28,04,28,19.80
2015,06,28,04,29,20.00
2015,06,28,04,30,20.10
2015,06,28,04,31,20.30
2015,06,28,04,32,20.50
2015,06,28,04,33,20.60
2015,06,28,04,34,20.60
2015,06,28,04,35,20.70
2015,06,28,04,36,20.60
2015,06,28,04,37,20.60
2015,06,28,04,38,20.60
2015,06,28,04,39,20.50
2015,06,28,04,40,20.50
2015,06,28,04,41,20.40
2015,06,28,04,42,20.40
2015,06,28,04,43,20.30
2015,06,28,04,44,20.30
2015,06,28,04,45,20.20
2015,06,28,04,46,20.20
2015,06,28,04,47,20.10
2015,06,28,04,48,20.00
2015,06,28,04,49,19.90
2015,06,28,04,50,19.80
2015,06,28,04,51,19.70
2015,06,28,04,52,19.70
2015,06,28,04,53,19.70
2015,06,28,04,54,19.70
2015,06,28,04,55,19.70
2015,06,28,04,56,19.80
2015,06,28,04,57,19.90
2015,06,28,04,58,19.90
2015,06,28,04,59,19.90
2015,06,28,05,00,19.90
2015,06,28,05,01,19.90
2015,06,28,05,02,19.90
2015,06,28,05,03,19.90
2015,06,28,05,04,19.90
2015,06,28,05,05,19.80
2015,06,28,05,06,19.70
2015,06,28,05,07,19.70
2015,06,28,05,08,19.60
2015,06,28,05,09,19.50
2015,06,28,05,10,19.40
2015,06,28,05,11,19.30
2015,06,28,05,12,19.30
2015,06,28,05,13,19.20
2015,06,28,05,14,19.10
2015,06,28,05,15,19.00
2015,06,28,05,16,18.90
2015,06,28,05,17,18.90
2015,06,28,05,18,18.80
2015,06,28,05,19,18.80
2015,06,28,05,20,18.70
2015,06,28,05,21,18.70
2015,06,28,05,22,18.60
2015,06,28,05,23,18.60
2015,06,28,05,24,18.50
2015,06,28,05,25,18.40
2015,06,28,05,26,18.40
2015,06,28,05,27,18.30
2015,06,28,05,28,18.30
2015,06,28,05,29,18.30
2015,06,28,05,30,18.30
2015,06,28,05,31,18.20
2015,06,28,05,32,18.20
2015,06,28,05,33,18.20
2015,06,28,05,34,18.20
2015,06,28,05,35,18.20
2015,06,28,05,36,18.20
2015,06,28,05,37,18.20
2015,06,28,05,38,18.20
2015,06,28,05,39,18.10
2015,06,28,05,40,18.10
2015,06,28,05,41,18.10
2015,06,28,05,42,18.20
2015,06,28,05,43,18.20
2015,06,28,05,44,18.20
2015,06,28,05,45,18.20
2015,06,28,05,46,18.20
2015,06,28,05,47,18.20
2015,06,28,05,48,18.30
2015,06,28,05,49,18.40
2015,06,28,05,50,18.50
2015,06,28,05,51,18.60
2015,06,28,05,52,18.60
2015,06,28,05,53,18.60
2015,06,28,05,54,18.60
2015,06,28,05,55,18.60
2015,06,28,05,56,18.60
2015,06,28,05,57,18.60
2015,06,28,05,58,18.60
2015,06,28,05,59,18.50
2015,06,28,06,00,18.50
2015,06,28,06,01,18.40
2015,06,28,06,02,18.40
2015,06,28,06,03,18.40
2015,06,28,06,04,18.40
2015,06,28,06,05,18.40
2015,06,28,06,06,18.40
2015,06,28,06,07,18.40
2015,06,28,06,08,18.40
2015,06,28,06,09,18.40
2015,06,28,06,10,18.40
2015,06,28,06,11,18.40
2015,06,28,06,12,18.40
2015,06,28,06,13,18.50
2015,06,28,06,14,18.50
2015,06,28,06,15,18.60
2015,06,28,06,16,18.70
2015,06,28,06,17,18.70
2015,06,28,06,18,18.80
2015,06,28,06,19,18.90
2015,06,28,06,20,18.90
2015,06,28,06,21,19.00
2015,06,28,06,22,19.10
2015,06,28,06,23,19.20
2015,06,28,06,24,19.40
2015,06,28,06,25,19.50
2015,06,28,06,26,19.70
2015,06,28,06,27,19.80
2015,06,28,06,28,19.90
2015,06,28,06,29,20.00
2015,06,28,06,30,20.00
2015,06,28,06,31,20.10
2015,06,28,06,32,20.10
2015,06,28,06,33,20.10
2015,06,28,06,34,20.10
2015,06,28,06,35,20.10
2015,06,28,06,36,20.20
2015,06,28,06,37,20.10
2015,06,28,06,38,20.10
2015,06,28,06,39,20.20
2015,06,28,06,40,20.20
2015,06,28,06,41,20.30
2015,06,28,06,42,20.40
2015,06,28,06,43,20.50
2015,06,28,06,44,20.70
2015,06,28,06,45,20.90
2015,06,28,06,46,21.10
2015,06,28,06,47,21.30
2015,06,28,06,48,21.50
2015,06,28,06,49,21.60
2015,06,28,06,50,21.80
2015,06,28,06,51,21.90
2015,06,28,06,52,22.10
2015,06,28,06,53,22.20
2015,06,28,06,54,22.40
2015,06,28,06,55,22.60
2015,06,28,06,56,22.70
2015,06,28,06,57,22.80
2015,06,28,06,58,22.90
2015,06,28,06,59,23.00
2015,06,28,07,00,23.00
2015,06,28,07,01,23.10
2015,06,28,07,02,23.10
2015,06,28,07,03,23.20
2015,06,28,07,04,23.20
2015,06,28,07,05,23.30
2015,06,28,07,06,23.30
2015,06,28,07,07,23.40
2015,06,28,07,08,23.40
2015,06,28,07,09,23.50
2015,06,28,07,10,23.60
2015,06,28,07,11,23.60
2015,06,28,07,12,23.70
2015,06,28,07,13,23.70
2015,06,28,07,14,23.80
2015,06,28,07,15,23.80
2015,06,28,07,16,23.90
2015,06,28,07,17,23.90
2015,06,28,07,18,24.00
2015,06,28,07,19,24.00
2015,06,28,07,20,24.10
2015,06,28,07,21,24.10
2015,06,28,07,22,24.10
2015,06,28,07,23,24.10
2015,06,28,07,24,24.20
2015,06,28,07,25,24.20
2015,06,28,07,26,24.20
2015,06,28,07,27,24.30
2015,06,28,07,28,24.30
2015,06,28,07,29,24.40
2015,06,28,07,30,24.50
2015,06,28,07,31,24.50
2015,06,28,07,32,24.60
2015,06,28,07,33,24.70
2015,06,28,07,34,24.80
2015,06,28,07,35,24.80
2015,06,28,07,36,24.90
2015,06,28,07,37,24.90
2015,06,28,07,38,25.00
2015,06,28,07,39,25.10
2015,06,28,07,40,25.10
2015,06,28,07,41,25.20
2015,06,28,07,42,25.20
2015,06,28,07,43,25.20
2015,06,28,07,44,25.20
2015,06,28,07,45,25.20
2015,06,28,07,46,25.20
2015,06,28,07,47,25.20
2015,06,28,07,48,25.30
2015,06,28,07,49,25.30
2015,06,28,07,50,25.30
2015,06,28,07,51,25.40
2015,06,28,07,52,25.40
2015,06,28,07,53,25.50
2015,06,28,07,54,25.60
2015,06,28,07,55,25.60
2015,06,28,07,56,25.70
2015,06,28,07,57,25.70
2015,06,28,07,58,25.80
2015,06,28,07,59,25.80
2015,06,28,08,00,25.80
2015,06,28,08,01,25.90
2015,06,28,08,02,25.90
2015,06,28,08,03,25.90
2015,06,28,08,04,25.90
2015,06,28,08,05,26.00
2015,06,28,08,06,26.00
2015,06,28,08,07,26.10
2015,06,28,08,08,26.10
2015,06,28,08,09,26.20
2015,06,28,08,10,26.20
2015,06,28,08,11,26.20
2015,06,28,08,12,26.20
2015,06,28,08,13,26.20
2015,06,28,08,14,26.20
2015,06,28,08,15,26.20
2015,06,28,08,16,26.20
2015,06,28,08,17,26.20
2015,06,28,08,18,26.20
2015,06,28,08,19,26.20
2015,06,28,08,20,26.20
2015,06,28,08,21,26.10
2015,06,28,08,22,26.20
2015,06,28,08,23,26.20
2015,06,28,08,24,26.20
2015,06,28,08,25,26.20
2015,06,28,08,26,26.20
2015,06,28,08,27,26.30
2015,06,28,08,28,26.30
2015,06,28,08,29,26.40
2015,06,28,08,30,26.40
2015,06,28,08,31,26.40
2015,06,28,08,32,26.40
2015,06,28,08,33,26.40
2015,06,28,08,34,26.50
2015,06,28,08,35,26.50
2015,06,28,08,36,26.60
2015,06,28,08,37,26.60
2015,06,28,08,38,26.70
2015,06,28,08,39,26.70
2015,06,28,08,40,26.70
2015,06,28,08,41,26.80
2015,06,28,08,42,26.80
2015,06,28,08,43,26.80
2015,06,28,08,44,26.90
2015,06,28,08,45,26.90
2015,06,28,08,46,26.90
2015,06,28,08,47,27.00
2015,06,28,08,48,27.10
2015,06,28,08,49,27.10
2015,06,28,08,50,27.20
2015,06,28,08,51,27.20
2015,06,28,08,52,27.30
2015,06,28,08,53,27.40
2015,06,28,08,54,27.50
2015,06,28,08,55,27.50
2015,06,28,08,56,27.60
2015,06,28,08,57,27.60
2015,06,28,08,58,27.70
2015,06,28,08,59,27.70
2015,06,28,09,00,27.70
2015,06,28,09,01,27.70
2015,06,28,09,02,27.80
2015,06,28,09,03,27.80
2015,06,28,09,04,27.90
2015,06,28,09,05,27.90
2015,06,28,09,06,28.00
2015,06,28,09,07,28.00
2015,06,28,09,08,28.10
2015,06,28,09,09,28.20
2015,06,28,09,10,28.30
2015,06,28,09,11,28.40
2015,06,28,09,12,28.40
2015,06,28,09,13,28.40
2015,06,28,09,14,28.40
2015,06,28,09,15,28.40
2015,06,28,09,16,28.40
2015,06,28,09,17,28.40
2015,06,28,09,18,28.40
2015,06,28,09,19,28.40
2015,06,28,09,20,28.40
2015,06,28,09,21,28.30
2015,06,28,09,22,28.30
2015,06,28,09,23,28.30
2015,06,28,09,24,28.30
2015,06,28,09,25,28.20
2015,06,28,09,26,28.20
2015,06,28,09,27,28.20
2015,06,28,09,28,28.20
2015,06,28,09,29,28.10
2015,06,28,09,30,28.10
2015,06,28,09,31,28.10
2015,06,28,09,32,28.10
2015,06,28,09,33,28.10
2015,06,28,09,34,28.10
2015,06,28,09,35,28.10
2015,06,28,09,36,28.10
2015,06,28,09,37,28.10
2015,06,28,09,38,28.00
2015,06,28,09,39,28.00
2015,06,28,09,40,27.90
2015,06,28,09,41,27.90
2015,06,28,09,42,27.80
2015,06,28,09,43,27.80
2015,06,28,09,44,27.80
2015,06,28,09,45,27.80
2015,06,28,09,46,27.80
2015,06,28,09,47,27.80
2015,06,28,09,48,27.80
2015,06,28,09,49,27.80
2015,06,28,09,50,27.80
2015,06,28,09,51,27.80
2015,06,28,09,52,27.90
2015,06,28,09,53,27.90
2015,06,28,09,54,27.90
2015,06,28,09,55,28.00
2015,06,28,09,56,28.00
2015,06,28,09,57,28.10
2015,06,28,09,58,28.10
2015,06,28,09,59,28.20
2015,06,28,10,00,28.30
2015,06,28,10,01,28.30
2015,06,28,10,02,28.40
2015,06,28,10,03,28.40
2015,06,28,10,04,28.40
2015,06,28,10,05,28.40
2015,06,28,10,06,28.40
2015,06,28,10,07,28.40
2015,06,28,10,08,28.40
2015,06,28,10,09,28.40
2015,06,28,10,10,28.40
2015,06,28,10,11,28.40
2015,06,28,10,12,28.40
2015,06,28,10,13,28.40
2015,06,28,10,14,28.40
2015,06,28,10,15,28.50
2015,06,28,10,16,28.50
2015,06,28,10,17,28.60
2015,06,28,10,18,28.60
2015,06,28,10,19,28.70
2015,06,28,10,20,28.70
2015,06,28,10,21,28.80
2015,06,28,10,22,28.90
2015,06,28,10,23,29.00
2015,06,28,10,24,29.20
2015,06,28,10,25,29.30
2015,06,28,10,26,29.40
2015,06,28,10,27,29.50
2015,06,28,10,28,29.50
2015,06,28,10,29,29.60
2015,06,28,10,30,29.50
2015,06,28,10,31,29.50
2015,06,28,10,32,29.50
2015,06,28,10,33,29.60
2015,06,28,10,34,29.70
2015,06,28,10,35,29.70
2015,06,28,10,36,29.70
2015,06,28,10,37,29.70
2015,06,28,10,38,29.60
2015,06,28,10,39,29.60
2015,06,28,10,40,29.50
2015,06,28,10,41,29.50
2015,06,28,10,42,29.40
2015,06,28,10,43,29.40
2015,06,28,10,44,29.40
2015,06,28,10,45,29.40
2015,06,28,10,46,29.40
2015,06,28,10,47,29.50
2015,06,28,10,48,29.50
2015,06,28,10,49,29.50
2015,06,28,10,50,29.50
2015,06,28,10,51,29.50
2015,06,28,10,52,29.60
2015,06,28,10,53,29.60
2015,06,28,10,54,29.60
2015,06,28,10,55,29.70
2015,06,28,10,56,29.70
2015,06,28,10,57,29.80
2015,06,28,10,58,29.90
2015,06,28,10,59,29.90
2015,06,28,11,00,29.90
2015,06,28,11,01,29.90
2015,06,28,11,02,29.90
2015,06,28,11,03,30.00
2015,06,28,11,04,30.20
2015,06,28,11,05,30.30
2015,06,28,11,06,30.30
2015,06,28,11,07,30.30
2015,06,28,11,08,30.40
2015,06,28,11,09,30.40
2015,06,28,11,10,30.50
2015,06,28,11,11,30.30
2015,06,28,11,12,30.20
2015,06,28,11,13,30.10
2015,06,28,11,14,30.00
2015,06,28,11,15,30.10
2015,06,28,11,16,30.10
2015,06,28,11,17,30.10
2015,06,28,11,18,30.20
2015,06,28,11,19,30.20
2015,06,28,11,20,30.20
2015,06,28,11,21,30.20
2015,06,28,11,22,30.20
2015,06,28,11,23,30.20
2015,06,28,11,24,30.20
2015,06,28,11,25,30.10
2015,06,28,11,26,30.10
2015,06,28,11,27,30.10
2015,06,28,11,28,30.00
2015,06,28,11,29,30.00
2015,06,28,11,30,29.90
2015,06,28,11,31,29.80
2015,06,28,11,32,29.80
2015,06,28,11,33,29.80
2015,06,28,11,34,29.80
2015,06,28,11,35,29.80
2015,06,28,11,36,29.90
2015,06,28,11,37,29.90
2015,06,28,11,38,30.00
2015,06,28,11,39,30.00
2015,06,28,11,40,30.10
2015,06,28,11,41,30.10
2015,06,28,11,42,30.10
2015,06,28,11,43,30.10
2015,06,28,11,44,30.10
2015,06,28,11,45,30.10
2015,06,28,11,46,30.10
2015,06,28,11,47,30.10
2015,06,28,11,48,30.20
2015,06,28,11,49,30.20
2015,06,28,11,50,30.30
2015,06,28,11,51,30.30
2015,06,28,11,52,30.20
2015,06,28,11,53,30.00
2015,06,28,11,54,29.80
2015,06,28,11,55,29.50
2015,06,28,11,56,29.20
2015,06,28,11,57,28.90
2015,06,28,11,58,28.60
2015,06,28,11,59,28.30
2015,06,28,12,00,28.00
2015,06,28,12,01,27.80
2015,06,28,12,02,27.60
2015,06,28,12,03,27.40
2015,06,28,12,04,27.20
2015,06,28,12,05,27.00
2015,06,28,12,06,26.80
2015,06,28,12,07,26.60
2015,06,28,12,08,26.40
2015,06,28,12,09,26.20
2015,06,28,12,10,26.00
2015,06,28,12,11,25.90
2015,06,28,12,12,25.80
2015,06,28,12,13,25.70
2015,06,28,12,14,25.60
2015,06,28,12,15,25.50
2015,06,28,12,16,25.50
2015,06,28,12,17,25.50
2015,06,28,12,18,25.40
2015,06,28,12,19,25.30
2015,06,28,12,20,25.30
2015,06,28,12,21,25.30
2015,06,28,12,22,25.40
2015,06,28,12,23,25.50
2015,06,28,12,24,25.50
2015,06,28,12,25,25.70
2015,06,28,12,26,25.80
2015,06,28,12,27,25.90
2015,06,28,12,28,25.90
2015,06,28,12,29,26.00
2015,06,28,12,30,26.10
2015,06,28,12,31,26.00
2015,06,28,12,32,25.90
2015,06,28,12,33,25.60
2015,06,28,12,34,25.30
2015,06,28,12,35,24.90
2015,06,28,12,36,24.50
2015,06,28,12,37,24.10
2015,06,28,12,38,23.80
2015,06,28,12,39,23.50
2015,06,28,12,40,23.20
2015,06,28,12,41,22.90
2015,06,28,12,42,22.70
2015,06,28,12,43,22.40
2015,06,28,12,44,22.30
2015,06,28,12,45,22.20
2015,06,28,12,46,22.20
2015,06,28,12,47,22.20
2015,06,28,12,48,22.20
2015,06,28,12,49,22.20
2015,06,28,12,50,22.20
2015,06,28,12,51,22.10
2015,06,28,12,52,21.90
2015,06,28,12,53,21.80
2015,06,28,12,54,21.50
2015,06,28,12,55,21.40
2015,06,28,12,56,21.30
2015,06,28,12,57,21.30
2015,06,28,12,58,21.30
2015,06,28,12,59,21.30
2015,06,28,13,00,21.40
2015,06,28,13,01,21.50
2015,06,28,13,02,21.50
2015,06,28,13,03,21.50
2015,06,28,13,04,21.50
2015,06,28,13,05,21.50
2015,06,28,13,06,21.40
2015,06,28,13,07,21.40
2015,06,28,13,08,21.40
2015,06,28,13,09,21.40
2015,06,28,13,10,21.50
2015,06,28,13,11,21.50
2015,06,28,13,12,21.50
2015,06,28,13,13,21.60
2015,06,28,13,14,21.60
2015,06,28,13,15,21.70
2015,06,28,13,16,21.70
2015,06,28,13,17,21.80
2015,06,28,13,18,21.80
2015,06,28,13,19,21.80
2015,06,28,13,20,21.80
2015,06,28,13,21,21.90
2015,06,28,13,22,22.00
2015,06,28,13,23,22.00
2015,06,28,13,24,22.10
2015,06,28,13,25,22.10
2015,06,28,13,26,22.10
2015,06,28,13,27,22.10
2015,06,28,13,28,22.10
2015,06,28,13,29,22.10
2015,06,28,13,30,22.10
2015,06,28,13,31,22.10
2015,06,28,13,32,22.10
2015,06,28,13,33,22.10
2015,06,28,13,34,22.10
2015,06,28,13,35,22.10
2015,06,28,13,36,22.10
2015,06,28,13,37,22.20
2015,06,28,13,38,22.20
2015,06,28,13,39,22.30
2015,06,28,13,40,22.30
2015,06,28,13,41,22.40
2015,06,28,13,42,22.40
2015,06,28,13,43,22.40
2015,06,28,13,44,22.50
2015,06,28,13,45,22.50
2015,06,28,13,46,22.40
2015,06,28,13,47,22.40
2015,06,28,13,48,22.30
2015,06,28,13,49,22.30
2015,06,28,13,50,22.30
2015,06,28,13,51,22.30
2015,06,28,13,52,22.30
2015,06,28,13,53,22.40
2015,06,28,13,54,22.40
2015,06,28,13,55,22.50
2015,06,28,13,56,22.50
2015,06,28,13,57,22.50
2015,06,28,13,58,22.50
2015,06,28,13,59,22.40
2015,06,28,14,00,22.40
2015,06,28,14,01,22.40
2015,06,28,14,02,22.40
2015,06,28,14,03,22.30
2015,06,28,14,04,22.30
2015,06,28,14,05,22.30
2015,06,28,14,06,22.30
2015,06,28,14,07,22.30
2015,06,28,14,08,22.30
2015,06,28,14,09,22.30
2015,06,28,14,10,22.30
2015,06,28,14,11,22.30
2015,06,28,14,12,22.30
2015,06,28,14,13,22.30
2015,06,28,14,14,22.30
2015,06,28,14,15,22.30
2015,06,28,14,16,22.20
2015,06,28,14,17,22.10
2015,06,28,14,18,22.10
2015,06,28,14,19,22.00
2015,06,28,14,20,21.90
2015,06,28,14,21,21.80
2015,06,28,14,22,21.80
2015,06,28,14,23,21.80
2015,06,28,14,24,21.70
2015,06,28,14,25,21.70
2015,06,28,14,26,21.70
2015,06,28,14,27,21.70
2015,06,28,14,28,21.70
2015,06,28,14,29,21.70
2015,06,28,14,30,21.70
2015,06,28,14,31,21.70
2015,06,28,14,32,21.70
2015,06,28,14,33,21.70
2015,06,28,14,34,21.60
2015,06,28,14,35,21.60
2015,06,28,14,36,21.50
2015,06,28,14,37,21.50
2015,06,28,14,38,21.40
2015,06,28,14,39,21.40
2015,06,28,14,40,21.30
2015,06,28,14,41,21.30
2015,06,28,14,42,21.30
2015,06,28,14,43,21.30
2015,06,28,14,44,21.30
2015,06,28,14,45,21.30
2015,06,28,14,46,21.30
2015,06,28,14,47,21.20
2015,06,28,14,48,21.30
2015,06,28,14,49,21.30
2015,06,28,14,50,21.30
2015,06,28,14,51,21.40
2015,06,28,14,52,21.50
2015,06,28,14,53,21.60
2015,06,28,14,54,21.80
2015,06,28,14,55,21.80
2015,06,28,14,56,22.00
2015,06,28,14,57,22.10
2015,06,28,14,58,22.20
2015,06,28,14,59,22.30
2015,06,28,15,00,22.40
2015,06,28,15,01,22.50
2015,06,28,15,02,22.60
2015,06,28,15,03,22.60
2015,06,28,15,04,22.70
2015,06,28,15,05,22.70
2015,06,28,15,06,22.70
2015,06,28,15,07,22.70
2015,06,28,15,08,22.70
2015,06,28,15,09,22.70
2015,06,28,15,10,22.70
2015,06,28,15,11,22.70
2015,06,28,15,12,22.70
2015,06,28,15,13,22.80
2015,06,28,15,14,22.80
2015,06,28,15,15,22.80
2015,06,28,15,16,22.80
2015,06,28,15,17,22.80
2015,06,28,15,18,22.80
2015,06,28,15,19,22.90
2015,06,28,15,20,22.90
2015,06,28,15,21,22.90
2015,06,28,15,22,22.90
2015,06,28,15,23,23.00
2015,06,28,15,24,23.00
2015,06,28,15,25,23.00
2015,06,28,15,26,23.10
2015,06,28,15,27,23.20
2015,06,28,15,28,23.20
2015,06,28,15,29,23.30
2015,06,28,15,30,23.30
2015,06,28,15,31,23.30
2015,06,28,15,32,23.40
2015,06,28,15,33,23.40
2015,06,28,15,34,23.40
2015,06,28,15,35,23.40
2015,06,28,15,36,23.40
2015,06,28,15,37,23.40
2015,06,28,15,38,23.40
2015,06,28,15,39,23.40
2015,06,28,15,40,23.30
2015,06,28,15,41,23.20
2015,06,28,15,42,23.20
2015,06,28,15,43,23.20
2015,06,28,15,44,23.10
2015,06,28,15,45,23.10
2015,06,28,15,46,23.10
2015,06,28,15,47,23.10
2015,06,28,15,48,23.10
2015,06,28,15,49,23.20
2015,06,28,15,50,23.20
2015,06,28,15,51,23.20
2015,06,28,15,52,23.20
2015,06,28,15,53,23.30
2015,06,28,15,54,23.30
2015,06,28,15,55,23.30
2015,06,28,15,56,23.40
2015,06,28,15,57,23.40
2015,06,28,15,58,23.40
2015,06,28,15,59,23.50
2015,06,28,16,00,23.50
2015,06,28,16,01,23.50
2015,06,28,16,02,23.60
2015,06,28,16,03,23.60
2015,06,28,16,04,23.60
2015,06,28,16,05,23.70
2015,06,28,16,06,23.70
2015,06,28,16,07,23.70
2015,06,28,16,08,23.70
2015,06,28,16,09,23.80
2015,06,28,16,10,23.80
2015,06,28,16,11,23.80
2015,06,28,16,12,23.80
2015,06,28,16,13,23.80
2015,06,28,16,14,23.80
2015,06,28,16,15,23.80
2015,06,28,16,16,23.80
2015,06,28,16,17,23.80
2015,06,28,16,18,23.80
2015,06,28,16,19,23.80
2015,06,28,16,20,23.70
2015,06,28,16,21,23.70
2015,06,28,16,22,23.70
2015,06,28,16,23,23.70
2015,06,28,16,24,23.70
2015,06,28,16,25,23.60
2015,06,28,16,26,23.60
2015,06,28,16,27,23.50
2015,06,28,16,28,23.50
2015,06,28,16,29,23.40
2015,06,28,16,30,23.40
2015,06,28,16,31,23.30
2015,06,28,16,32,23.30
2015,06,28,16,33,23.30
2015,06,28,16,34,23.30
2015,06,28,16,35,23.30
2015,06,28,16,36,23.20
2015,06,28,16,37,23.20
2015,06,28,16,38,23.10
2015,06,28,16,39,22.90
2015,06,28,16,40,22.70
2015,06,28,16,41,22.50
2015,06,28,16,42,22.30
2015,06,28,16,43,22.20
2015,06,28,16,44,22.10
2015,06,28,16,45,22.10
2015,06,28,16,46,22.00
2015,06,28,16,47,22.00
2015,06,28,16,48,22.00
2015,06,28,16,49,22.00
2015,06,28,16,50,22.00
2015,06,28,16,51,22.10
2015,06,28,16,52,22.10
2015,06,28,16,53,22.10
2015,06,28,16,54,22.10
2015,06,28,16,55,22.10
2015,06,28,16,56,22.20
2015,06,28,16,57,22.20
2015,06,28,16,58,22.20
2015,06,28,16,59,22.30
2015,06,28,17,00,22.30
2015,06,28,17,01,22.30
2015,06,28,17,02,22.30
2015,06,28,17,03,22.30
2015,06,28,17,04,22.30
2015,06,28,17,05,22.30
2015,06,28,17,06,22.30
2015,06,28,17,07,22.30
2015,06,28,17,08,22.30
2015,06,28,17,09,22.30
2015,06,28,17,10,22.30
2015,06,28,17,11,22.30
2015,06,28,17,12,22.20
2015,06,28,17,13,22.20
2015,06,28,17,14,22.20
2015,06,28,17,15,22.20
2015,06,28,17,16,22.20
2015,06,28,17,17,22.10
2015,06,28,17,18,22.10
2015,06,28,17,19,22.10